Versailles, OH

2:49 PM EST on February 23, 2017 (GMT -0500)
Darke County

Weather History for KVES - November, 2011

Change the Weather History Date:

Saturday, November 26, 2011

  Actual Average (KDAY) Record (KDAY)
Temperature  
Mean Temperature 53 °F -  
Max Temperature 62 °F 50 °F 70 °F (1896)
Min Temperature 44 °F 34 °F 8 °F (1930)
Degree Days  
Heating Degree Days 12    
Growing Degree Days 3 (Base 50)    
Moisture  
Dew Point 40 °F    
Average Humidity 64    
Maximum Humidity 71    
Minimum Humidity 52    
Precipitation  
Precipitation 0.00 in - - ()
Sea Level Pressure  
Sea Level Pressure 30.03 in    
Wind  
Wind Speed 9 mph (South)    
Max Wind Speed 17 mph    
Max Gust Speed 30 mph    
Visibility 10 miles    
Events      
Averages and records for this station are not official NWS values.
T = Trace of Precipitation, MM = Missing Value Source: NWS Daily Summary

Daily Weather History Graph

Daily Weather History Graph

Search for Another Location

Airport or City:

Trip Planner

Search our weather history database for the weather conditions in past years. The results will help you decide how hot, cold, wet, or windy it might be!

Date:

Astronomy

Nov. 26, 2011 Rise Set
Actual Time 7:35 AM EST 5:14 PM EST
Civil Twilight 7:05 AM EST 5:44 PM EST
Nautical Twilight 6:32 AM EST 6:17 PM EST
Astronomical Twilight 5:59 AM EST 6:50 PM EST
Moon 9:06 AM EST (11/26) 6:44 PM EST (11/26)
Length of Visible Light 10h 38m
Length of Day
9h 38m
Waxing Crescent, 3% of the Moon is Illuminated
Nov 26
Waxing Crescent
Dec 2
First Quarter
Dec 10
Full
Dec 17
Last Quarter
Dec 24
New

Hourly Weather History & Observations

Time (EST) Temp. Windchill Dew Point Humidity Pressure Visibility Wind Dir Wind Speed Gust Speed Precip Events Conditions
12:15 AM 46.4 °F 42.4 °F 35.6 °F 66% 30.07 in 10.0 mi SSW 8.1 mph - N/A   Clear
12:35 AM 46.4 °F 42.9 °F 33.8 °F 62% 30.07 in 10.0 mi South 6.9 mph - N/A   Clear
1:55 AM 46.4 °F 41.9 °F 33.8 °F 62% 30.07 in 10.0 mi SSW 9.2 mph - N/A   Clear
2:15 AM 46.4 °F 42.4 °F 33.8 °F 62% 30.06 in 10.0 mi South 8.1 mph - N/A   Clear
2:35 AM 46.4 °F 41.9 °F 33.8 °F 62% 30.07 in 10.0 mi SSW 9.2 mph - N/A   Clear
2:55 AM 46.4 °F 42.9 °F 33.8 °F 62% 30.08 in 10.0 mi SSW 6.9 mph - N/A   Clear
3:15 AM 46.4 °F 43.5 °F 33.8 °F 62% 30.08 in 10.0 mi South 5.8 mph - N/A   Clear
3:35 AM 46.4 °F 43.5 °F 33.8 °F 62% 30.08 in 10.0 mi South 5.8 mph - N/A   Clear
3:55 AM 44.6 °F 41.4 °F 35.6 °F 71% 30.08 in 10.0 mi South 5.8 mph - N/A   Clear
4:15 AM 44.6 °F 41.4 °F 35.6 °F 71% 30.08 in 10.0 mi South 5.8 mph - N/A   Clear
4:35 AM 44.6 °F 40.7 °F 33.8 °F 66% 30.08 in 10.0 mi South 6.9 mph - N/A   Clear
4:55 AM 44.6 °F 41.4 °F 35.6 °F 71% 30.08 in 10.0 mi South 5.8 mph - N/A   Clear
5:15 AM 44.6 °F 41.4 °F 35.6 °F 71% 30.08 in 10.0 mi South 5.8 mph - N/A   Clear
5:35 AM 44.6 °F 40.2 °F 35.6 °F 71% 30.08 in 10.0 mi South 8.1 mph - N/A   Clear
5:55 AM 44.6 °F 41.4 °F 35.6 °F 71% 30.08 in 10.0 mi South 5.8 mph - N/A   Clear
6:15 AM 44.6 °F 41.4 °F 35.6 °F 71% 30.08 in 10.0 mi South 5.8 mph - N/A   Clear
6:35 AM 44.6 °F 40.7 °F 35.6 °F 71% 30.08 in 10.0 mi South 6.9 mph - N/A   Scattered Clouds
6:55 AM 44.6 °F 40.2 °F 35.6 °F 71% 30.08 in 10.0 mi South 8.1 mph - N/A   Scattered Clouds
7:15 AM 44.6 °F 39.7 °F 35.6 °F 71% 30.09 in 10.0 mi South 9.2 mph - N/A   Scattered Clouds
7:35 AM 44.6 °F 39.7 °F 35.6 °F 71% 30.08 in 10.0 mi South 9.2 mph - N/A   Clear
7:55 AM 44.6 °F 40.2 °F 35.6 °F 71% 30.08 in 10.0 mi South 8.1 mph - N/A   Clear
8:15 AM 44.6 °F 40.7 °F 35.6 °F 71% 30.09 in 10.0 mi South 6.9 mph - N/A   Clear
8:35 AM 44.6 °F 40.2 °F 35.6 °F 71% 30.09 in 10.0 mi South 8.1 mph - N/A   Clear
8:55 AM 46.4 °F 41.9 °F 35.6 °F 66% 30.09 in 10.0 mi South 9.2 mph - N/A   Clear
9:15 AM 48.2 °F - 37.4 °F 66% 30.10 in 10.0 mi SSW 8.1 mph - N/A   Clear
9:35 AM 50.0 °F - 37.4 °F 62% 30.10 in 10.0 mi South 9.2 mph 17.3 mph N/A   Clear
9:55 AM 50.0 °F - 39.2 °F 66% 30.10 in 10.0 mi SSW 11.5 mph 17.3 mph N/A   Clear
10:15 AM 51.8 °F - 41.0 °F 67% 30.10 in 10.0 mi SSW 12.7 mph 21.9 mph N/A   Clear
10:35 AM 53.6 °F - 41.0 °F 62% 30.10 in 10.0 mi SSW 11.5 mph 19.6 mph N/A   Clear
10:55 AM 55.4 °F - 42.8 °F 63% 30.09 in 10.0 mi SSW 12.7 mph 20.7 mph N/A   Clear
11:15 AM 55.4 °F - 42.8 °F 63% 30.09 in 10.0 mi SSW 15.0 mph 20.7 mph N/A   Clear
11:35 AM 57.2 °F - 42.8 °F 59% 30.08 in 10.0 mi SSW 16.1 mph 23.0 mph N/A   Clear
11:55 AM 59.0 °F - 44.6 °F 59% 30.07 in 10.0 mi SSW 13.8 mph 21.9 mph N/A   Clear
12:15 PM 59.0 °F - 44.6 °F 59% 30.06 in 10.0 mi SSW 17.3 mph 25.3 mph N/A   Clear
12:35 PM 59.0 °F - 44.6 °F 59% 30.05 in 10.0 mi SSW 15.0 mph 25.3 mph N/A   Clear
12:55 PM 60.8 °F - 44.6 °F 55% 30.04 in 10.0 mi SSW 13.8 mph 20.7 mph N/A   Clear
1:15 PM 60.8 °F - 44.6 °F 55% 30.03 in 10.0 mi SSW 16.1 mph 24.2 mph N/A   Clear
1:35 PM 60.8 °F - 44.6 °F 55% 30.02 in 10.0 mi SSW 16.1 mph 23.0 mph N/A   Clear
1:55 PM 60.8 °F - 44.6 °F 55% 30.01 in 10.0 mi SSW 16.1 mph 25.3 mph N/A   Clear
2:15 PM 62.6 °F - 44.6 °F 52% 30.00 in 10.0 mi SSW 15.0 mph 26.5 mph N/A   Clear
2:35 PM 62.6 °F - 44.6 °F 52% 30.00 in 10.0 mi SSW 16.1 mph 29.9 mph N/A   Clear
2:55 PM 62.6 °F - 44.6 °F 52% 30.00 in 10.0 mi SSW 13.8 mph 19.6 mph N/A   Clear
3:15 PM 62.6 °F - 44.6 °F 52% 29.99 in 10.0 mi SSW 15.0 mph 23.0 mph N/A   Clear
3:35 PM 62.6 °F - 44.6 °F 52% 29.99 in 10.0 mi SSW 16.1 mph 25.3 mph N/A   Clear
3:55 PM 60.8 °F - 44.6 °F 55% 29.98 in 10.0 mi SSW 12.7 mph 21.9 mph N/A   Scattered Clouds
4:15 PM 60.8 °F - 46.4 °F 59% 29.98 in 10.0 mi South 8.1 mph - N/A   Scattered Clouds
4:35 PM 60.8 °F - 46.4 °F 59% 29.98 in 10.0 mi South 9.2 mph 16.1 mph N/A   Clear
4:55 PM 60.8 °F - 46.4 °F 59% 29.97 in 10.0 mi South 10.4 mph 16.1 mph N/A   Clear
5:15 PM 59.0 °F - 46.4 °F 63% 29.97 in 10.0 mi South 6.9 mph - N/A   Scattered Clouds
5:35 PM 57.2 °F - 46.4 °F 67% 29.96 in 10.0 mi South 8.1 mph - N/A   Scattered Clouds
5:55 PM 57.2 °F - 46.4 °F 67% 29.95 in 10.0 mi South 6.9 mph - N/A   Clear
6:15 PM 57.2 °F - 44.6 °F 63% 29.95 in 10.0 mi South 8.1 mph - N/A   Clear
6:35 PM 55.4 °F - 44.6 °F 67% 29.95 in 10.0 mi South 9.2 mph - N/A   Scattered Clouds
6:55 PM 57.2 °F - 44.6 °F 63% 29.95 in 7.0 mi South 6.9 mph - N/A   Overcast
7:15 PM 55.4 °F - 44.6 °F 67% 29.94 in 10.0 mi South 8.1 mph - N/A   Overcast
7:35 PM 55.4 °F - 44.6 °F 67% 29.94 in 10.0 mi South 8.1 mph - N/A   Overcast
8:15 PM 57.2 °F - 44.6 °F 63% 29.92 in 10.0 mi South 11.5 mph - N/A   Overcast
8:35 PM 57.2 °F - 44.6 °F 63% 29.92 in 10.0 mi South 12.7 mph 18.4 mph N/A   Scattered Clouds
9:15 PM 55.4 °F - 44.6 °F 67% 29.92 in 10.0 mi South 9.2 mph 18.4 mph N/A   Clear
9:55 PM 55.4 °F - 44.6 °F 67% 29.91 in 10.0 mi South 11.5 mph 17.3 mph N/A   Clear
10:15 PM 55.4 °F - 44.6 °F 67% 29.90 in 10.0 mi South 11.5 mph 19.6 mph N/A   Scattered Clouds
10:35 PM 55.4 °F - 44.6 °F 67% 29.90 in 10.0 mi South 13.8 mph 18.4 mph N/A   Mostly Cloudy
10:55 PM 55.4 °F - 44.6 °F 67% 29.89 in 10.0 mi South 12.7 mph 18.4 mph N/A   Scattered Clouds
11:15 PM 55.4 °F - 44.6 °F 67% 29.89 in 10.0 mi South 11.5 mph 18.4 mph N/A   Mostly Cloudy
11:55 PM 55.4 °F - 46.4 °F 72% 29.88 in 10.0 mi South 13.8 mph 20.7 mph N/A   Overcast